Theta_e
305 309 310 315 320 320 323 322 322 324 324 323 323 322 320 318 317 316 315 314 315 315
300 303 303 303 305 303 304 305 307 309 312 311 312 319 321 318 317 315 315 315 315 315
296 297 297 298 299 302 300 299 300 300 300 301 300 300 302 303 303 309 314 312 314 314
293 293 294 294 295 296 295 295 294 295 295 294 294 295 295 294 295 294 294 294 294 294
291 291 291 291 291 293 292 292 293 292 293 291 291 291 291 290 290 290 290 291 292 291
288 288 288 290 290 290 290 290 291 290 289 288 289 289 289 288 288 288 287 288 288 288
285 286 286 287 287 288 289 288 288 288 288 288 287 287 287 287 286 286 286 286 286 286
285 285 285 285 285 286 286 286 287 287 287 287 287 286 285 285 284 284 283 283 284 285
284 284 284 283 283 284 284 284 284 284 284 284 285 287 286 284 282 281 280 279 280 280
283 282 282 282 282 282 282 283 282 283 283 283 284 285 284 283 281 281 280 280 279 279
282 281 281 281 281 281 281 281 281 281 282 282 283 285 284 282 280 279 280 280 280 280
280 280 280 280 280 280 281 280 281 281 281 281 282 285 284 281 280 280 280 281 281 281
280 280 279 280 279 280 280 280 281 281 281 281 282 285 284 282 280 279 279 279 280 283
280 280 279 279 279 278 278 278 278 278 278 279 280 283 285 283 280 279 278 278 278 280
Wind_Speed
4 3 3 2 6 6 5 3 1 8 7 9 8 9 9 8 10 10 10 13 10 8
3 3 0 3 5 5 7 6 6 6 4 4 6 3 7 8 9 10 11 12 13 11
5 4 5 5 6 4 7 8 6 5 8 7 7 6 5 5 6 3 6 6 11 12
6 8 7 6 6 6 7 10 11 6 7 8 7 7 7 7 7 7 6 6 7 8
10 9 8 9 8 10 11 11 10 7 9 9 9 8 8 9 8 9 9 9 9 8
10 10 10 10 9 12 11 11 10 10 11 10 10 10 10 10 10 11 10 10 11 10
10 11 10 11 12 12 11 11 12 13 12 11 10 11 11 11 10 12 13 13 11 10
9 12 12 12 14 13 13 12 12 13 13 12 12 9 11 11 11 12 12 12 11 11
12 12 12 14 13 13 13 12 13 13 12 12 9 19 19 13 11 10 11 10 9 8
13 14 10 12 14 13 14 11 13 13 12 13 12 19 19 16 9 9 9 8 7 8
11 11 11 13 12 12 10 11 11 11 10 10 10 17 18 17 10 10 10 8 8 8
10 11 11 12 10 8 9 10 9 8 10 10 9 15 14 11 8 10 10 9 9 8
9 10 10 9 9 7 8 9 7 10 8 9 8 14 14 8 5 8 6 6 7 13
9 8 7 7 7 6 8 8 7 9 8 8 7 10 15 13 6 5 5 4 3 3
Wind_Direction
307 271 247 320 242 285 189 184 187 184 193 204 204 195 197 207 212 213 218 222 223 219
342 328 208 81 72 100 44 42 42 15 56 36 23 294 214 206 217 209 214 219 221 223
21 22 46 52 61 88 83 77 47 41 50 34 42 23 12 16 9 293 237 237 228 225
41 36 52 56 64 61 79 79 51 38 48 52 38 30 50 45 33 59 54 45 50 38
49 52 54 58 51 64 68 54 73 71 60 56 53 44 54 61 55 60 55 42 50 46
52 55 58 59 65 66 70 67 69 67 67 56 57 59 60 65 61 66 63 54 55 44
54 56 59 60 64 67 69 77 71 66 67 65 67 64 61 60 63 61 57 51 46 42
61 62 61 64 63 64 62 61 70 71 67 65 61 60 65 66 62 62 63 54 49 43
58 64 60 58 64 64 63 60 64 64 65 65 62 74 76 79 75 65 65 65 56 50
59 56 64 64 59 56 55 57 60 59 61 67 69 72 71 67 66 68 65 64 63 64
59 61 57 62 61 58 58 55 56 56 53 66 70 74 78 76 75 71 60 53 54 62
42 51 54 58 51 52 69 65 59 56 56 60 60 68 73 71 70 71 59 49 47 48
42 56 55 60 58 54 55 65 65 65 51 51 61 66 69 68 79 78 74 55 44 68
37 44 54 61 50 45 61 63 59 64 42 43 40 60 68 68 62 76 74 60 34 22